カタログに戻る

SKYSAT C5

運用中科学SSO
NORAD 41772·PAYLOAD·🇺🇸 United States

打ち上げ Sep 16, 2016 から Guiana Space Centre

Loading…

次のパス (今後24時間)

TLE

最新Source: CelesTrak SupGP

元期: Sep 14, 2026, 14:49 UTC

1 41772C 16058C   26257.61777778  .00000342  00000+0  10372-4 0  2575
2 41772  97.0396 294.1849 0001334  24.0886 117.4384 15.34203259    16

AllMySatでSKYSAT C5をリアルタイム追跡

Download on the App Store